Погода в Эрмуполисе

Греция     37°26′35″N   24°56′15″E
темп.,
°C
ветер,
м/с
пор.,
м/с
влажн.,
%
обл.,
%
осадки,
мм/ч
давл.,
гПа
погр.,
м
10 мая, пн
пн1000:00+17с1116640 0.0 1019725
03:00+16с1218610 0.0 1018726
06:00+16с1218580 0.0 1017763
09:00+17с1217570 0.0 1018767
12:00+17с1215560 0.0 1018806
15:00+17с1013570 0.0 1017775
18:00+17с812520 0.0 1016806
21:00+18ссз712540 0.0 1016766
11 мая, вт
вт1100:00+18ссз610540 0.0 1016706
03:00+17ссз711565 0.0 1014713
06:00+17ссз712565 0.0 1014719
09:00+17ссз710565 0.0 1014718
12:00+18ссз58536 0.0 1014698
15:00+18ссз47530 0.0 1014665
18:00+18с46530 0.0 1013504
21:00+17с36594 0.0 1012279
12 мая, ср
ср1200:00+17ссз22600 0.0 1012158
03:00+17ссз11574 0.0 1011133
06:00+17св22620 0.0 1010159
09:00+17ссз11610 0.0 1011195
12:00+18юз22586 0.0 1011237
15:00+19юз3356100 0.0 1010265
18:00+19ююз456685 0.0 1009317
21:00+19ю812760 0.0 1008352
13 мая, чт
чт1300:00+19ююз811800 0.0 1007374
03:00+19юз67855 0.0 1006190
06:00+19юз57825 0.0 1007221
09:00+19юз57806 0.0 1008253
12:00+19юз45780 0.0 1009277
15:00+19ююз22730 0.0 1009228
18:00+19ю44730 0.0 1009287
21:00+19ю33795 0.0 100953
14 мая, пт
пт1400:00+19ююз458295 0.0 1009128
03:00+19юз34860 0.0 100975
06:00+19зюз68780 0.0 1010203
09:00+19зюз68770 0.0 1012295
12:00+19зюз46760 0.0 1013251
15:00+19юз45750 0.0 1014272
18:00+20ююз45730 0.0 1014201
21:00+19ююз33791 0.0 101435